Regional Weather Roundup
Issued by NWS

Home | Current Version | Previous Version | Graphics & Text | Print | Product List | Glossary On
Versions: 1 2 3 4 5 6 7 8 9 10 11 12 13 14 15 16 17 18 19 20 21 22 23 24 25 26 27 28 29 30 31 32 33 34 35 36 37 38 39 40 41 42 43 44 45 46 47 48 49 50
000
ASUS44 KMEG 301610
RWRTN
TENNESSEE HOURLY STATE WEATHER ROUNDUP
NATIONAL WEATHER SERVICE MEMPHIS TN
1100 AM CDT MON MAY 30 2016

TNZ002-004-019-021-049-052-054-088>092-301700-
WEST TENNESSEE

CITY           SKY/WX    TMP DP  RH WIND       PRES   REMARKS
MEMPHIS INTL   MOSUNNY   87  64  46 VRB6      30.06F
NWS MEMPHIS      N/A     85 N/A N/A MISG        N/A
JACKSON        SUNNY     85  59  41 E8        30.07S
DYERSBURG      SUNNY     82  63  51 E6        30.06S
UNION CITY     SUNNY     82  64  54 CALM      30.06S
PARIS          SUNNY     81  61  50 N8        30.08S
LEXINGTON      SUNNY     82  63  51 NE6       30.06F
$$

TNZ008-025-027-028-033-062-065-066-301700-
NORTH MIDDLE TENNESSEE

CITY           SKY/WX    TMP DP  RH WIND       PRES   REMARKS
NASHVILLE      PTSUNNY   85  60  42 N8        30.07S
CLARKSVILLE    SUNNY     84  59  42 VRB7      30.06F
SMYRNA         MOSUNNY   84  62  47 CALM      30.07F
COOKEVILLE     MOSUNNY   82  66  57 N6        30.06S
CROSSVILLE     MOSUNNY   79  60  52 N9        30.10F
$$

TNZ061-075-076-078-094-096-097-301700-
SOUTH MIDDLE TENNESSEE

CITY           SKY/WX    TMP DP  RH WIND       PRES   REMARKS
FAYETTEVILLE   MOSUNNY   82  64  54 NE6       30.06F
TULLAHOMA      MOSUNNY   82  64  54 CALM      30.08S
WINCHESTER     MOSUNNY   84  64  51 N7        30.06S
MCMINNVILLE    MOSUNNY   82  66  57 NE3       30.06F
COLUMBIA       MOSUNNY   84  70  61 VRB3      30.05F
SHELBYVILLE    SUNNY     84  64  51 NE9       30.07S
$$

TNZ017-018-042-046-047-301700-
NORTHEAST TENNESSEE

CITY           SKY/WX    TMP DP  RH WIND       PRES   REMARKS
TRI CITIES     MOSUNNY   78  62  57 W5        30.07F
$$

TNZ012-013-036-069-073-074-301700-
CENTRAL EAST TENNESSEE

CITY           SKY/WX    TMP DP  RH WIND       PRES   REMARKS
KNOXVILLE      MOSUNNY   80  65  59 NW3       30.04F
OAK RIDGE      SUNNY     83  62  49 SW3       30.06S
GATLINBURG       N/A     81  63  54 W5        30.04F
$$

TNZ083-085-099-301700-
SOUTHEAST TENNESSEE

CITY           SKY/WX    TMP DP  RH WIND       PRES   REMARKS
CHATTANOOGA    MOSUNNY   87  64  46 N3        30.03F
$$

SKY/WX REPORTED AS FAIR MEANS FEW OR NO CLOUDS BELOW
12 THOUSAND FEET.





USA.gov is the U.S. government's official web portal to all federal, state and local government web resources and services.